Location: Pl�tzky
(52.0521°N, 11.8020°E)
Time: 12:31:09
(UTC+00:00)

BREEZE-M DEB (TANK) - Pass Details

Date: 22 November 2019
Orbit: 335 x 16595 km, 49.4° (Epoch: 15 December)

Event Time Altitude Azimuth Distance (km) Brightness Sun altitude
Rises 18:20:40 0° 280° (W) 4,425 8.2 -28.3°
Reaches altitude 10° 18:24:52 10° 273° (W) 2,356 6.5 -28.9°
Enters shadow 18:27:40 26° 251° (WSW) 1,038 4.2 -29.3°
